[[{"header":{"parameterUnit":"m.s-1","parameterCategory":1,"la1":30.2991,"la2":30.254,"lo1":-89.0895,"lo2":-89.0444,"dy":0.0017,"dx":0.0017,"nx":28,"ny":28,"refTime":"2024-05-09T21:00:00:Z","depth":0,"parameterNumber":2,"parameterNumberName":"U-component_of_WINDS"},"data":[0,0,0,0,0,0,0,0,0,0,0,0,0,0,0,0,0,0,0,0,0,0,0,0,0,0,0,0,0,0,0,0,0,0,0,0,0,0,0,0,0,0,0,0,0,0,0,0,0,0,0,0,0,0,0,0,0,0,-0.3122,-0.3121,0,-0.3016,-0.3015,-0.3013,-0.2955,-0.2955,-0.2955,-0.2955,-0.2841,-0.2838,-0.2835,0,0,0,0,0,0,0,0,0,0,0,0,0,-0.3272,-0.3269,-0.3123,-0.3121,-0.312,-0.3016,-0.3015,-0.3013,-0.2955,-0.2955,-0.2955,-0.2955,-0.2842,-0.2838,-0.2835,0,0,0,0,0,0,0,0,0,0,0,0,0,-0.319,-0.3269,-0.3123,-0.3079,-0.3074,-0.3016,-0.3015,-0.3013,-0.2955,-0.2955,-0.2955,-0.2955,-0.2843,-0.2839,-0.2834,-0.2811,0,0,-0.2821,-0.2819,0,0,0,0,0,0,0,0,-0.3195,-0.3185,-0.3086,-0.3082,-0.3076,-0.2999,-0.3025,-0.2945,-0.2956,-0.3,-0.2955,-0.2955,-0.2893,-0.2885,-0.2865,-0.2806,-0.2801,-0.2821,-0.2818,-0.2816,-0.2815,0,0,0,0,0,0,0,-0.3201,-0.3189,-0.308,-0.3085,-0.3079,-0.3063,-0.3051,-0.301,-0.2949,-0.2996,-0.2992,-0.298,-0.289,-0.2869,-0.2862,-0.2799,-0.2821,-0.2817,-0.2814,-0.2812,-0.2715,-0.2715,0,0,0,0,0,0,-0.3214,-0.3194,-0.3083,-0.3077,-0.3136,-0.306,-0.3047,-0.3024,-0.2949,-0.2938,-0.2981,-0.2978,-0.2877,-0.2867,-0.2858,-0.2825,-0.2816,-0.2812,-0.2809,-0.2715,-0.2715,-0.2715,0,0,0,0,0,0,-0.3217,-0.3205,-0.3088,-0.3134,-0.3118,-0.3058,-0.3032,-0.3022,-0.3001,-0.2937,-0.2926,-0.2971,-0.2876,-0.2864,-0.2823,-0.282,-0.281,-0.2806,-0.2714,-0.2715,-0.2715,-0.276,0,0,0,0,0,0,-0.3222,-0.3206,-0.3198,-0.3135,-0.3116,-0.3057,-0.3032,-0.302,-0.2994,-0.299,-0.2925,-0.2914,-0.2875,-0.283,-0.2819,-0.2814,-0.2802,-0.2714,-0.2715,-0.2715,-0.2758,-0.2761,-0.2764,0,0,0,0,0,-0.3227,-0.3214,-0.3198,-0.3185,-0.3104,-0.3057,-0.3046,-0.3003,-0.2994,-0.2984,-0.2944,-0.2916,-0.2823,-0.2827,-0.2813,-0.2807,-0.2714,-0.2714,-0.2715,-0.2757,-0.2761,-0.2764,0,0,0,0,0,0,-0.3276,-0.3205,-0.3186,-0.3152,-0.3111,-0.3047,-0.3034,-0.3008,-0.2968,-0.2965,-0.2912,-0.2898,-0.2863,-0.2831,-0.2836,-0.278,-0.2765,-0.2763,-0.2802,-0.2805,-0.2808,-0.2816,-0.2799,0,0,0,0,0,-0.3284,-0.3252,-0.3191,-0.3166,-0.3147,-0.3094,-0.3072,-0.3043,-0.2997,-0.2979,-0.2936,-0.2892,-0.2852,-0.2827,-0.2787,-0.2754,-0.2738,-0.2743,-0.2746,-0.2748,-0.2746,-0.2726,-0.2727,-0.2715,-0.2715,-0.2715,0,0,-0.3297,-0.3254,-0.3237,-0.3175,-0.314,-0.3108,-0.308,-0.3047,-0.3021,-0.2973,-0.2933,-0.29,-0.2847,-0.281,-0.2791,-0.2782,-0.2746,-0.2749,-0.2751,-0.2747,-0.2726,-0.2727,-0.2728,-0.2715,-0.2715,-0.2715,0,0,-0.3306,-0.3271,-0.3246,-0.3212,-0.316,-0.3125,-0.312,-0.3059,-0.3036,-0.2995,-0.2958,-0.2927,-0.286,-0.2824,-0.2797,-0.2793,-0.2765,-0.2781,-0.2795,-0.2776,-0.2777,-0.2777,-0.2775,-0.2774,-0.2779,-0.2779,-0.278,0,-0.3329,-0.328,-0.3237,-0.3206,-0.3179,-0.3136,-0.311,-0.3079,-0.3016,-0.2998,-0.2989,-0.2905,-0.2866,-0.282,-0.2819,-0.2799,-0.2789,-0.2787,-0.278,-0.278,-0.278,-0.2777,-0.2776,-0.2782,-0.2781,-0.2781,-0.2781,0,-0.331,-0.3277,-0.3263,-0.3206,-0.3177,-0.3149,-0.31,-0.3077,-0.305,-0.3016,-0.2974,-0.2926,-0.2876,-0.2863,-0.2836,-0.2813,-0.2808,-0.2791,-0.2775,-0.2784,-0.278,-0.2779,-0.2785,-0.2784,-0.2783,-0.2783,0,0,-0.3345,-0.3265,-0.3261,-0.3234,-0.3174,-0.3146,-0.3116,-0.3068,-0.3049,-0.3007,-0.2979,-0.2924,-0.2908,-0.2877,-0.2845,-0.2828,-0.2827,-0.2812,-0.281,-0.2816,-0.2797,-0.281,-0.281,-0.2809,-0.2809,-0.2808,-0.2801,0,-0.3345,-0.329,-0.325,-0.3209,-0.3177,-0.3137,-0.311,-0.3069,-0.3036,-0.3003,-0.2966,-0.2928,-0.2909,-0.2891,-0.2872,-0.2831,-0.2822,-0.2831,-0.2781,-0.278,-0.2795,-0.2808,-0.2821,-0.2817,-0.2799,-0.2799,-0.2799,0,-0.3336,-0.3297,-0.3254,-0.3198,-0.3182,-0.3159,-0.3113,-0.3082,-0.3035,-0.3012,-0.2979,-0.2946,-0.2911,-0.2899,-0.2849,-0.2856,-0.2833,-0.281,-0.2808,-0.2801,-0.2789,-0.28,-0.2814,-0.2813,-0.2796,-0.2797,-0.2797,0,-0.3365,-0.3302,-0.3268,-0.3246,-0.318,-0.3164,-0.3135,-0.3088,-0.3062,-0.3021,-0.3003,-0.2958,-0.2933,-0.2898,-0.2854,-0.2849,-0.2807,-0.2792,-0.2786,-0.2787,-0.2778,-0.2779,-0.2788,-0.2765,-0.2765,-0.2765,-0.2765,0,-0.3367,-0.3342,-0.328,-0.3259,-0.323,-0.3184,-0.3155,-0.3123,-0.3081,-0.3052,-0.3014,-0.2987,-0.2931,-0.2896,-0.2862,-0.2825,-0.2814,-0.2793,-0.2784,-0.2796,-0.2798,-0.2779,-0.2778,-0.2765,-0.2765,-0.2765,-0.2765,0,-0.3394,-0.3352,-0.3312,-0.3253,-0.3237,-0.3218,-0.3166,-0.3143,-0.3109,-0.3072,-0.3061,-0.3006,-0.2964,-0.2917,-0.2859,-0.2835,-0.28,-0.2787,-0.2817,-0.2811,-0.2807,-0.2808,-0.2803,-0.28,-0.2781,-0.2781,-0.2782,0,-0.3398,-0.3378,-0.3317,-0.3296,-0.3269,-0.3235,-0.3208,-0.3162,-0.3136,-0.3081,-0.3065,-0.302,-0.2982,-0.2916,-0.287,-0.2825,-0.281,-0.2812,-0.2803,-0.2816,-0.2809,-0.281,-0.2808,-0.2814,-0.2815,-0.2815,-0.2815,0,-0.341,-0.339,-0.3354,-0.3312,-0.3282,-0.3246,-0.3208,-0.3192,-0.3138,-0.311,-0.3068,-0.3038,-0.298,-0.2935,-0.2885,-0.2853,-0.2824,-0.2819,-0.2815,-0.2826,-0.2843,-0.2833,-0.2823,-0.2819,-0.2818,-0.2818,-0.2818,-0.2818,-0.3424,-0.3405,-0.3359,-0.332,-0.3288,-0.3253,-0.3229,-0.3192,-0.3156,-0.3106,-0.3081,-0.3038,-0.2991,-0.292,-0.289,-0.2854,-0.2845,-0.284,-0.2838,-0.2837,-0.284,-0.285,-0.2845,-0.2845,-0.2845,-0.2844,-0.2844,0,-0.3433,-0.3402,-0.3367,-0.3316,-0.3286,-0.3264,-0.3221,-0.3196,-0.316,-0.3119,-0.3083,-0.3033,-0.299,-0.2941,-0.2894,-0.2876,-0.2861,-0.2865,-0.2865,-0.2858,-0.2851,-0.2859,-0.2877,-0.2877,-0.2877,-0.2877,-0.2877,-0.2877,-0.3434,-0.3399,-0.3374,-0.3322,-0.329,-0.325,-0.3227,-0.3194,-0.3161,-0.3109,-0.3073,-0.3043,-0.2998,-0.2948,-0.2907,-0.2893,-0.2877,-0.2884,-0.2867,-0.2861,-0.2858,-0.2856,-0.2863,-0.2882,-0.2882,-0.2876,-0.2876,-0.2876]},{"header":{"parameterUnit":"m.s-1","parameterCategory":1,"la1":30.2991,"la2":30.254,"lo1":-89.0895,"lo2":-89.0444,"dy":0.0017,"dx":0.0017,"nx":28,"ny":28,"refTime":"2024-05-09T21:00:00:Z","depth":0,"parameterNumber":3,"parameterNumberName":"V-component_of_WINDS"},"data":[0,0,0,0,0,0,0,0,0,0,0,0,0,0,0,0,0,0,0,0,0,0,0,0,0,0,0,0,0,0,0,0,0,0,0,0,0,0,0,0,0,0,0,0,0,0,0,0,0,0,0,0,0,0,0,0,0,0,5.3476,5.3476,0,5.3507,5.3508,5.3508,5.3535,5.3536,5.3536,5.3536,5.3562,5.3563,5.3563,0,0,0,0,0,0,0,0,0,0,0,0,0,5.3436,5.3436,5.3476,5.3476,5.3477,5.3507,5.3508,5.3508,5.3535,5.3536,5.3536,5.3536,5.3562,5.3563,5.3563,0,0,0,0,0,0,0,0,0,0,0,0,0,5.3459,5.3436,5.3476,5.3494,5.3496,5.3507,5.3508,5.3508,5.3535,5.3536,5.3536,5.3537,5.3562,5.3562,5.3563,5.3557,0,0,5.3565,5.3565,0,0,0,0,0,0,0,0,5.3457,5.346,5.3491,5.3493,5.3495,5.3518,5.3503,5.3524,5.3535,5.352,5.3536,5.3537,5.3547,5.3549,5.3553,5.3558,5.3559,5.3565,5.3565,5.3565,5.3566,0,0,0,0,0,0,0,5.3456,5.3459,5.3488,5.3491,5.3494,5.35,5.3503,5.3507,5.353,5.3521,5.3523,5.3527,5.3548,5.3553,5.3554,5.356,5.3565,5.3565,5.3566,5.3566,5.3566,5.3565,0,0,0,0,0,0,5.3452,5.3457,5.3487,5.3489,5.3477,5.35,5.3504,5.351,5.353,5.3534,5.3527,5.3528,5.3551,5.3553,5.3555,5.3552,5.3565,5.3566,5.3566,5.3566,5.3566,5.3565,0,0,0,0,0,0,5.3451,5.3454,5.3486,5.3474,5.3478,5.35,5.3506,5.351,5.3515,5.3534,5.3538,5.3528,5.3552,5.3554,5.3558,5.3553,5.3566,5.3567,5.3566,5.3566,5.3565,5.3544,0,0,0,0,0,0,5.345,5.3454,5.3452,5.3474,5.3479,5.3488,5.3506,5.3511,5.3517,5.3519,5.3536,5.3539,5.3552,5.3557,5.3558,5.3554,5.3567,5.3567,5.3566,5.3565,5.3545,5.3543,5.3541,0,0,0,0,0,5.3448,5.3442,5.3452,5.3455,5.3477,5.3488,5.3491,5.3508,5.3516,5.3515,5.3528,5.3539,5.3554,5.3557,5.3559,5.3555,5.3567,5.3566,5.3566,5.3546,5.3543,5.3541,0,0,0,0,0,0,5.3415,5.3445,5.3456,5.3457,5.3471,5.3493,5.3491,5.3504,5.3513,5.3514,5.3534,5.3537,5.3539,5.3547,5.355,5.3552,5.3562,5.3562,5.3547,5.3544,5.3542,5.354,5.3568,0,0,0,0,0,5.3409,5.3417,5.3442,5.344,5.3447,5.3468,5.3473,5.3486,5.3499,5.3504,5.3517,5.3529,5.3537,5.3541,5.3548,5.3547,5.3552,5.3545,5.3543,5.3541,5.354,5.3544,5.3542,5.3562,5.3562,5.3562,0,0,5.3394,5.3412,5.3415,5.3434,5.3446,5.3454,5.3472,5.3478,5.3484,5.3504,5.351,5.352,5.3534,5.3536,5.3538,5.3543,5.3537,5.354,5.3539,5.3539,5.3543,5.3541,5.3539,5.3562,5.3562,5.3562,0,0,5.3372,5.3385,5.3388,5.3401,5.342,5.3435,5.3436,5.3457,5.3466,5.3473,5.349,5.3496,5.3508,5.3519,5.3526,5.3514,5.3525,5.3515,5.3503,5.3506,5.3505,5.3503,5.3501,5.3499,5.3515,5.3515,5.3514,0,5.335,5.3364,5.3386,5.3393,5.3402,5.3426,5.3429,5.3439,5.3458,5.3464,5.3471,5.349,5.35,5.3507,5.3505,5.3509,5.3511,5.3513,5.3503,5.3502,5.3501,5.3499,5.3498,5.3513,5.3514,5.3514,5.3514,0,5.3338,5.3347,5.3347,5.337,5.3379,5.3383,5.3406,5.3412,5.3426,5.344,5.3448,5.3463,5.3476,5.3478,5.3489,5.3488,5.3491,5.35,5.351,5.3498,5.3496,5.3495,5.3512,5.3512,5.3513,5.3513,0,0,5.3292,5.3332,5.3331,5.3344,5.3369,5.3376,5.3383,5.3399,5.3405,5.3419,5.3425,5.3438,5.3448,5.3456,5.3469,5.3472,5.3464,5.3481,5.3482,5.3479,5.3466,5.3459,5.3458,5.3473,5.3473,5.3473,5.3466,0,5.3274,5.329,5.3313,5.332,5.333,5.3356,5.3362,5.3378,5.3393,5.3403,5.3418,5.3428,5.344,5.3445,5.3449,5.3464,5.3462,5.3465,5.3479,5.3479,5.3475,5.3457,5.3449,5.3441,5.3465,5.3465,5.3465,0,5.3254,5.3272,5.3282,5.3311,5.3316,5.3321,5.3341,5.335,5.337,5.338,5.3392,5.3408,5.3417,5.3427,5.344,5.3442,5.3449,5.3458,5.3458,5.346,5.3471,5.3459,5.3439,5.3438,5.3463,5.3463,5.3464,0,5.3223,5.3248,5.3258,5.3268,5.3301,5.3305,5.3319,5.334,5.335,5.3366,5.3373,5.3388,5.3397,5.3409,5.3429,5.3434,5.344,5.3451,5.345,5.3449,5.3449,5.3448,5.3431,5.3453,5.3453,5.3453,5.3453,0,5.32,5.3206,5.3245,5.3251,5.3259,5.3286,5.3292,5.3308,5.3327,5.3337,5.3358,5.3367,5.3393,5.3404,5.342,5.343,5.3433,5.3442,5.3446,5.344,5.3439,5.3445,5.3446,5.3453,5.3453,5.3453,5.3453,0,5.3165,5.3191,5.3205,5.3238,5.3246,5.3251,5.3279,5.3286,5.3304,5.3316,5.332,5.3348,5.3363,5.3385,5.3405,5.3416,5.3424,5.343,5.3418,5.3421,5.3419,5.3419,5.3404,5.3404,5.3425,5.3425,5.3424,0,5.3149,5.3155,5.319,5.32,5.3215,5.3229,5.3241,5.3269,5.328,5.3306,5.331,5.3328,5.3344,5.3367,5.3388,5.3405,5.3412,5.3406,5.3414,5.341,5.3414,5.3413,5.3415,5.3403,5.3403,5.3402,5.3402,0,5.3119,5.3133,5.3151,5.3174,5.3188,5.3207,5.3226,5.3233,5.3264,5.3276,5.3294,5.3306,5.3331,5.3348,5.3369,5.3382,5.3398,5.34,5.3401,5.3395,5.3388,5.3394,5.3414,5.34,5.34,5.34,5.34,5.34,5.3094,5.3101,5.313,5.3149,5.3168,5.3187,5.3197,5.3218,5.3235,5.3259,5.3274,5.3292,5.3315,5.3345,5.3358,5.3372,5.3378,5.3379,5.3379,5.3379,5.3378,5.3387,5.3376,5.3376,5.3376,5.3376,5.3376,0,5.3066,5.3087,5.3105,5.3134,5.315,5.3168,5.3191,5.3203,5.3219,5.3241,5.3258,5.328,5.3299,5.3324,5.3344,5.3351,5.3359,5.3355,5.3355,5.3359,5.337,5.3368,5.3349,5.3349,5.3349,5.3349,5.3349,5.3349,5.3054,5.3069,5.3088,5.3113,5.3133,5.3154,5.3166,5.3184,5.3202,5.3228,5.3245,5.3262,5.3285,5.3309,5.3327,5.3334,5.3341,5.3336,5.3344,5.3355,5.3357,5.3359,5.3358,5.3337,5.3337,5.3332,5.3332,5.3332]}]]